Regional Weather Roundup
Issued by NWS Kansas City/Pleasant Hill, MO

Home | Current Version | Previous Version | Text Only | Print | Product List | Glossary On
Versions: 1 2 3 4 5 6 7 8 9 10 11 12 13 14 15 16 17 18 19 20 21 22 23 24 25 26 27 28 29 30 31 32 33 34 35 36 37 38 39 40 41 42 43 44 45 46 47 48 49 50
000
ASUS43 KEAX 121311
RWREAX

WEATHER ROUNDUP FOR EASTERN KANSAS AND NORTHWEST MISSOURI
NATIONAL WEATHER SERVICE KANSAS CITY/PLEASANT HILL MO
800 AM CDT SAT JUL 12 2014

KSZ040-057-103>105-MOZ028-029-037-043-121400-
...KANSAS CITY METROPOLITAN AREA...

CITY           SKY/WX    TMP DP  RH WIND       PRES   REMARKS
K.C. INTL      PTSUNNY   78  67  68 S13       30.05S
K.C. DOWNTOWN  MOSUNNY   81  66  60 SW10      30.04F
LEES SUMMIT    SUNNY     77  68  73 S7        30.07F
OLATHE - IXD   SUNNY     77  67  71 S13       30.07F
OLATHE - OJC   SUNNY     75  68  78 SW7       30.06F
LAWRENCE       MOSUNNY   78  68  71 S6        30.05F

$$

MOZ001>008-011>017-020>025-030>033-038>040-044>046-053-054-121400-
...NORTHERN AND CENTRAL MISSOURI...

CITY           SKY/WX    TMP DP  RH WIND       PRES   REMARKS
ST. JOSEPH     PTSUNNY   77  68  73 SW10      30.02F
MOSBY          MOSUNNY   77  68  73 S5        30.05S
WARRENSBURG    MOSUNNY   75  68  78 S5        30.08S
WHITEMAN AFB   NOT AVBL
CLINTON        MOSUNNY   79  72  78 S7        30.10S
SEDALIA        PTSUNNY   78  71  79 S9        30.10S
WARSAW         NOT AVBL
MARSHALL         N/A     79  73  83 SW10      30.08S HAZE
CHILLICOTHE      N/A     78  70  76 S5        30.05S
MOBERLY        CLOUDY    77  68  73 S5        30.08S
KIRKSVILLE     PTSUNNY   78  71  79 CALM      30.08R

$$

MOZ041-047>049-056>058-063>065-088>090-097-121400-
...EASTERN AND SOUTHERN MISSOURI...

CITY           SKY/WX    TMP DP  RH WIND       PRES   REMARKS
ST. LOUIS INTL CLOUDY    80  73  79 SW13      30.11R
SPIRIT OF STL  CLOUDY    79  73  82 SW9       30.09S
COLUMBIA       CLOUDY    77  74  90 S6        30.10S
JEFFERSON CITY SUNNY     81  73  78 S6        30.10S
MEXICO         CLOUDY   N/A N/A N/A SW7       30.09S
HANNIBAL       PTSUNNY   81  70  69 SW8       30.08S
ROLLA          PTSUNNY   77  71  82 SW12      30.13F
LEBANON        SUNNY     79  68  69 SW7       30.17R
OSAGE BEACH    MOSUNNY   77  70  78 SW7       30.13R
SPRINGFIELD    SUNNY     76  69  79 SW9       30.16R
BRANSON        MOSUNNY   79  68  69 W5        30.19R
NEVADA         SUNNY     77  68  73 S9        30.12S
JOPLIN         SUNNY     78  67  68 S10       30.14S
WEST PLAINS    CLOUDY    76  73  91 VRB3      30.20R

$$

IAZ060-094-KSZ022-034>040-054-083-096-NEZ052-066-093-121400-
...KANSAS...SOUTHEAST NEBRASKA AND IOWA...

CITY           SKY/WX    TMP DP  RH WIND       PRES   REMARKS
TOPEKA         MOSUNNY   79  66  64 SW8       30.04S
MANHATTAN      SUNNY     78  64  61 SW12      30.02F
EMPORIA        SUNNY     78  64  61 S15       30.06S
CHANUTE        SUNNY     76  66  71 S12       30.10S
WICHITA        MOSUNNY   74  64  71 S8        30.08R
OMAHA          CLOUDY    73  67  81 SE6       29.99F
LINCOLN        CLOUDY    77  72  84 CALM      30.00F
FALLS CITY     PTSUNNY   76  70  82 S5        30.01S
LAMONI         PTSUNNY   76  72  87 CALM      30.06R
DES MOINES     CLOUDY    73  69  87 CALM      30.03R

$$




USA.gov is the U.S. government's official web portal to all federal, state and local government web resources and services.